JST1174 YSSY-YMML

Flight info

Callsign JST1174
Flight time 1h 8m
Altitude 36000
Route WOL H65 LEECE Q29 ML
Aircraft A321/M-SDE3FGHIRWY/LB1

Departure

Time 2026-04-26 05:14
Airport Sydney Kingsford Smith International Airport (YSSY)

Arrival

Time 2026-04-26 06:22
Airport Melbourne Airport (YMML)
Time Latitude Longitude Altitude Speed Heading
2026-04-26 04:22 -33.93563 151.17761 30 ft 0 kts 281°
2026-04-26 04:54 -33.93564 151.17770 30 ft 3 kts 278°
2026-04-26 04:54 -33.93566 151.17793 30 ft 3 kts 265°
2026-04-26 04:55 -33.93562 151.17816 30 ft 3 kts 239°
2026-04-26 04:55 -33.93551 151.17831 30 ft 2 kts 197°
2026-04-26 04:55 -33.93547 151.17833 30 ft 0 kts 190°
2026-04-26 04:59 -33.93549 151.17832 30 ft 1 kts 190°
2026-04-26 04:59 -33.93564 151.17829 30 ft 3 kts 190°
2026-04-26 04:59 -33.93594 151.17822 30 ft 5 kts 190°
2026-04-26 05:00 -33.93636 151.17813 30 ft 7 kts 191°
2026-04-26 05:00 -33.93690 151.17800 30 ft 9 kts 193°
2026-04-26 05:00 -33.93755 151.17780 30 ft 11 kts 195°
2026-04-26 05:00 -33.93833 151.17764 30 ft 12 kts 176°
2026-04-26 05:01 -33.93922 151.17778 29 ft 14 kts 164°
2026-04-26 05:01 -33.94020 151.17811 29 ft 16 kts 167°
2026-04-26 05:01 -33.94130 151.17838 29 ft 16 kts 167°
2026-04-26 05:01 -33.94244 151.17868 30 ft 17 kts 168°
2026-04-26 05:02 -33.94367 151.17900 30 ft 19 kts 167°
2026-04-26 05:02 -33.94496 151.17886 30 ft 19 kts 188°
2026-04-26 05:02 -33.94627 151.17909 30 ft 20 kts 168°
2026-04-26 05:02 -33.94764 151.17944 30 ft 21 kts 168°
2026-04-26 05:03 -33.94910 151.17982 30 ft 22 kts 167°
2026-04-26 05:03 -33.95039 151.18015 30 ft 12 kts 168°
2026-04-26 05:03 -33.95099 151.18076 30 ft 12 kts 103°
2026-04-26 05:03 -33.95086 151.18178 30 ft 9 kts 77°
2026-04-26 05:04 -33.95072 151.18257 30 ft 10 kts 79°
2026-04-26 05:04 -33.95056 151.18348 30 ft 11 kts 77°
2026-04-26 05:04 -33.95046 151.18401 28 ft 0 kts 78°
2026-04-26 05:05 -33.95045 151.18407 29 ft 3 kts 79°
2026-04-26 05:05 -33.95048 151.18474 30 ft 13 kts 115°
2026-04-26 05:05 -33.95128 151.18558 30 ft 16 kts 140°
2026-04-26 05:05 -33.95217 151.18653 30 ft 18 kts 142°
2026-04-26 05:06 -33.95331 151.18722 30 ft 19 kts 168°
2026-04-26 05:06 -33.95466 151.18757 30 ft 20 kts 168°
2026-04-26 05:06 -33.95608 151.18794 30 ft 22 kts 167°
2026-04-26 05:06 -33.95758 151.18832 30 ft 22 kts 168°
2026-04-26 05:07 -33.95914 151.18875 30 ft 23 kts 166°
2026-04-26 05:07 -33.96077 151.18916 30 ft 24 kts 168°
2026-04-26 05:07 -33.96249 151.18960 30 ft 25 kts 168°
2026-04-26 05:07 -33.96422 151.19006 30 ft 26 kts 167°
2026-04-26 05:08 -33.96607 151.19054 30 ft 26 kts 168°
2026-04-26 05:08 -33.96779 151.19064 30 ft 23 kts 182°
2026-04-26 05:08 -33.96906 151.19085 30 ft 12 kts 169°
2026-04-26 05:08 -33.96989 151.19108 30 ft 13 kts 166°
2026-04-26 05:09 -33.97050 151.19123 30 ft 6 kts 168°
2026-04-26 05:09 -33.97073 151.19130 30 ft 0 kts 166°
2026-04-26 05:09 -33.97080 151.19132 30 ft 1 kts 166°
2026-04-26 05:09 -33.97087 151.19134 30 ft 0 kts 165°
2026-04-26 05:10 -33.97090 151.19135 30 ft 1 kts 163°
2026-04-26 05:10 -33.97105 151.19143 30 ft 3 kts 152°
2026-04-26 05:10 -33.97122 151.19170 30 ft 5 kts 113°
2026-04-26 05:10 -33.97122 151.19218 30 ft 7 kts 83°
2026-04-26 05:11 -33.97116 151.19253 29 ft 0 kts 76°
2026-04-26 05:11 -33.97115 151.19260 29 ft 3 kts 76°
2026-04-26 05:11 -33.97106 151.19304 27 ft 8 kts 79°
2026-04-26 05:11 -33.97092 151.19365 30 ft 7 kts 52°
2026-04-26 05:12 -33.97074 151.19372 30 ft 3 kts
2026-04-26 05:12 -33.97054 151.19369 27 ft 0 kts 351°
2026-04-26 05:13 -33.97030 151.19363 25 ft 25 kts 347°
2026-04-26 05:13 -33.96572 151.19248 25 ft 104 kts 348°
2026-04-26 05:13 -33.95671 151.19005 107 ft 152 kts 349°
2026-04-26 05:14 -33.94643 151.18771 785 ft 149 kts
2026-04-26 05:14 -33.93682 151.19155 1516 ft 147 kts 37°
2026-04-26 05:14 -33.93046 151.20155 2104 ft 163 kts 68°
2026-04-26 05:14 -33.93059 151.21582 2477 ft 184 kts 108°
2026-04-26 05:15 -33.93646 151.22993 2978 ft 190 kts 108°
2026-04-26 05:15 -33.93845 151.24543 3529 ft 189 kts 85°
2026-04-26 05:15 -33.93804 151.26132 4088 ft 191 kts 85°
2026-04-26 05:15 -33.93758 151.27757 4547 ft 201 kts 86°
2026-04-26 05:16 -33.93707 151.29529 4714 ft 223 kts 86°
2026-04-26 05:16 -33.93648 151.31505 4897 ft 249 kts 86°
2026-04-26 05:16 -33.93585 151.33682 5314 ft 268 kts 87°
2026-04-26 05:16 -33.93522 151.35979 6075 ft 273 kts 87°
2026-04-26 05:17 -33.93456 151.38269 6923 ft 275 kts 87°
2026-04-26 05:17 -33.93387 151.40573 7724 ft 277 kts 87°
2026-04-26 05:17 -33.93319 151.42905 8490 ft 280 kts 88°
2026-04-26 05:17 -33.93249 151.45265 9273 ft 284 kts 88°
2026-04-26 05:18 -33.93176 151.47660 10064 ft 287 kts 88°
2026-04-26 05:18 -33.93270 151.50122 10416 ft 307 kts 101°
2026-04-26 05:18 -33.94051 151.52603 10610 ft 328 kts 121°
2026-04-26 05:18 -33.95557 151.54718 11141 ft 338 kts 141°
2026-04-26 05:19 -33.97598 151.56140 11797 ft 343 kts 160°
2026-04-26 05:19 -33.99954 151.56593 12481 ft 347 kts 183°
2026-04-26 05:19 -34.02292 151.55893 13161 ft 351 kts 206°
2026-04-26 05:19 -34.04227 151.54104 13832 ft 355 kts 228°
2026-04-26 05:20 -34.05828 151.51825 14468 ft 358 kts 230°
2026-04-26 05:20 -34.07428 151.49502 15068 ft 362 kts 230°
2026-04-26 05:20 -34.09042 151.47151 15672 ft 366 kts 230°
2026-04-26 05:20 -34.10675 151.44770 16261 ft 370 kts 230°
2026-04-26 05:21 -34.12331 151.42368 16871 ft 374 kts 230°
2026-04-26 05:21 -34.14011 151.39943 17461 ft 379 kts 230°
2026-04-26 05:21 -34.15710 151.37490 18066 ft 383 kts 229°
2026-04-26 05:21 -34.17427 151.35009 18616 ft 387 kts 230°
2026-04-26 05:22 -34.19165 151.32497 19123 ft 391 kts 230°
2026-04-26 05:22 -34.20917 151.29961 19672 ft 394 kts 230°
2026-04-26 05:22 -34.22679 151.27407 20196 ft 398 kts 230°
2026-04-26 05:22 -34.24455 151.24835 20775 ft 400 kts 230°
2026-04-26 05:23 -34.26243 151.22243 21317 ft 403 kts 230°
2026-04-26 05:23 -34.28040 151.19637 21873 ft 405 kts 230°
2026-04-26 05:23 -34.29853 151.17005 22424 ft 408 kts 230°
2026-04-26 05:23 -34.31677 151.14356 22953 ft 412 kts 230°
2026-04-26 05:24 -34.33513 151.11685 23494 ft 414 kts 230°
2026-04-26 05:24 -34.35363 151.08992 23958 ft 417 kts 230°
2026-04-26 05:24 -34.37221 151.06287 24398 ft 420 kts 230°
2026-04-26 05:24 -34.39092 151.03564 24831 ft 421 kts 230°
2026-04-26 05:25 -34.40969 151.00828 25265 ft 423 kts 230°
2026-04-26 05:25 -34.42848 150.98077 25702 ft 425 kts 230°
2026-04-26 05:25 -34.44734 150.95312 26133 ft 426 kts 230°
2026-04-26 05:25 -34.46628 150.92534 26547 ft 428 kts 230°
2026-04-26 05:26 -34.48531 150.89751 26963 ft 430 kts 230°
2026-04-26 05:26 -34.50447 150.86950 27366 ft 432 kts 230°
2026-04-26 05:26 -34.52365 150.84137 27774 ft 434 kts 231°
2026-04-26 05:26 -34.54287 150.81312 28176 ft 435 kts 231°
2026-04-26 05:27 -34.56215 150.78463 28576 ft 437 kts 231°
2026-04-26 05:27 -34.58091 150.75540 28962 ft 439 kts 233°
2026-04-26 05:27 -34.59907 150.72555 29336 ft 441 kts 234°
2026-04-26 05:27 -34.61698 150.69522 29707 ft 443 kts 234°
2026-04-26 05:28 -34.63485 150.66464 30054 ft 445 kts 234°
2026-04-26 05:28 -34.65286 150.63396 30392 ft 447 kts 234°
2026-04-26 05:28 -34.67107 150.60323 30693 ft 449 kts 234°
2026-04-26 05:28 -34.68945 150.57252 30999 ft 450 kts 234°
2026-04-26 05:29 -34.70797 150.54175 31320 ft 452 kts 234°
2026-04-26 05:29 -34.72657 150.51087 31619 ft 454 kts 233°
2026-04-26 05:29 -34.74521 150.47988 31977 ft 454 kts 234°
2026-04-26 05:29 -34.76400 150.44850 32434 ft 452 kts 234°
2026-04-26 05:30 -34.77623 150.42805 32716 ft 451 kts 234°
2026-04-26 05:30 -34.80063 150.38726 33281 ft 449 kts 234°
2026-04-26 05:30 -34.81300 150.36657 33558 ft 448 kts 234°
2026-04-26 05:30 -34.83134 150.33589 33945 ft 448 kts 234°
2026-04-26 05:31 -34.84963 150.30526 34316 ft 447 kts 234°
2026-04-26 05:31 -34.86790 150.27461 34649 ft 446 kts 234°
2026-04-26 05:31 -34.88610 150.24404 34973 ft 446 kts 234°
2026-04-26 05:31 -34.90426 150.21348 35295 ft 445 kts 234°
2026-04-26 05:32 -34.92241 150.18291 35603 ft 445 kts 234°
2026-04-26 05:32 -34.94055 150.15238 35920 ft 445 kts 234°
2026-04-26 05:32 -34.95874 150.12183 36160 ft 447 kts 234°
2026-04-26 05:32 -34.97711 150.09094 36224 ft 452 kts 234°
2026-04-26 05:33 -35.01407 150.02854 36227 ft 455 kts 235°
2026-04-26 05:33 -35.05101 149.96585 36225 ft 455 kts 235°
2026-04-26 05:34 -35.08794 149.90321 36225 ft 455 kts 235°
2026-04-26 05:34 -35.12488 149.84047 36229 ft 454 kts 235°
2026-04-26 05:35 -35.16173 149.77786 36240 ft 454 kts 235°
2026-04-26 05:35 -35.19859 149.71520 36242 ft 454 kts 235°
2026-04-26 05:36 -35.23537 149.65234 36246 ft 454 kts 235°
2026-04-26 05:36 -35.27212 149.58940 36254 ft 454 kts 235°
2026-04-26 05:37 -35.30885 149.52644 36257 ft 454 kts 235°
2026-04-26 05:37 -35.34549 149.46345 36260 ft 454 kts 235°
2026-04-26 05:38 -35.38217 149.40039 36261 ft 454 kts 236°
2026-04-26 05:38 -35.41888 149.33729 36265 ft 454 kts 236°
2026-04-26 05:39 -35.45573 149.27367 36267 ft 455 kts 235°
2026-04-26 05:39 -35.49236 149.21032 36264 ft 455 kts 236°
2026-04-26 05:40 -35.52897 149.14697 36261 ft 455 kts 236°
2026-04-26 05:40 -35.56558 149.08350 36260 ft 455 kts 236°
2026-04-26 05:41 -35.60211 149.01996 36255 ft 455 kts 236°
2026-04-26 05:41 -35.63865 148.95637 36257 ft 455 kts 236°
2026-04-26 05:42 -35.67523 148.89270 36260 ft 455 kts 236°
2026-04-26 05:42 -35.71166 148.82902 36264 ft 455 kts 236°
2026-04-26 05:43 -35.74797 148.76516 36274 ft 455 kts 236°
2026-04-26 05:43 -35.78429 148.70137 36272 ft 455 kts 236°
2026-04-26 05:44 -35.82067 148.63760 36280 ft 454 kts 236°
2026-04-26 05:44 -35.85688 148.57388 36279 ft 454 kts 236°
2026-04-26 05:45 -35.89301 148.51007 36280 ft 454 kts 236°
2026-04-26 05:45 -35.92906 148.44614 36278 ft 454 kts 237°
2026-04-26 05:46 -35.96503 148.38212 36278 ft 454 kts 236°
2026-04-26 05:46 -36.00098 148.31806 36279 ft 454 kts 237°
2026-04-26 05:47 -36.03694 148.25395 36278 ft 453 kts 237°
2026-04-26 05:47 -36.07281 148.18977 36277 ft 454 kts 237°
2026-04-26 05:48 -36.10870 148.12555 36266 ft 454 kts 237°
2026-04-26 05:48 -36.14460 148.06123 36265 ft 455 kts 237°
2026-04-26 05:49 -36.19877 147.96422 36263 ft 455 kts 237°
2026-04-26 05:50 -36.23472 147.89973 36257 ft 455 kts 237°
2026-04-26 05:50 -36.27067 147.83520 36255 ft 455 kts 237°
2026-04-26 05:51 -36.30662 147.77047 36253 ft 455 kts 237°
2026-04-26 05:51 -36.34248 147.70576 36252 ft 455 kts 237°
2026-04-26 05:52 -36.37822 147.64099 36252 ft 455 kts 237°
2026-04-26 05:52 -36.41398 147.57607 36254 ft 455 kts 237°
2026-04-26 05:53 -36.44974 147.51115 36255 ft 456 kts 238°
2026-04-26 05:53 -36.48546 147.44607 36254 ft 456 kts 238°
2026-04-26 05:54 -36.52107 147.38085 36254 ft 455 kts 238°
2026-04-26 05:54 -36.55664 147.31566 36252 ft 455 kts 238°
2026-04-26 05:55 -36.59223 147.25046 36252 ft 455 kts 238°
2026-04-26 05:55 -36.62775 147.18514 36251 ft 455 kts 238°
2026-04-26 05:56 -36.66327 147.11976 36254 ft 455 kts 238°
2026-04-26 05:56 -36.69868 147.05434 36256 ft 455 kts 238°
2026-04-26 05:57 -36.73416 146.98890 35860 ft 453 kts 238°
2026-04-26 05:57 -36.75175 146.95641 35615 ft 452 kts 238°
2026-04-26 05:57 -36.76936 146.92379 35363 ft 454 kts 238°
2026-04-26 05:57 -36.78689 146.89126 35114 ft 448 kts 238°
2026-04-26 05:58 -36.80415 146.85927 34872 ft 440 kts 238°
2026-04-26 05:58 -36.82107 146.82791 34628 ft 432 kts 239°
2026-04-26 05:58 -36.83774 146.79696 34391 ft 427 kts 239°
2026-04-26 05:58 -36.85421 146.76630 34065 ft 423 kts 239°
2026-04-26 05:59 -36.87051 146.73593 33586 ft 419 kts 239°
2026-04-26 05:59 -36.88667 146.70579 33125 ft 416 kts 239°
2026-04-26 05:59 -36.90270 146.67589 32653 ft 413 kts 239°
2026-04-26 05:59 -36.91860 146.64615 32198 ft 410 kts 239°
2026-04-26 06:00 -36.93460 146.61624 31734 ft 407 kts 239°
2026-04-26 06:00 -36.94500 146.59679 31438 ft 405 kts 239°
2026-04-26 06:00 -36.96586 146.55770 30838 ft 402 kts 238°
2026-04-26 06:00 -36.97611 146.53845 30545 ft 401 kts 238°
2026-04-26 06:01 -36.99155 146.50949 30059 ft 399 kts 238°
2026-04-26 06:01 -37.00688 146.48072 29623 ft 396 kts 238°
2026-04-26 06:01 -37.02720 146.44247 29053 ft 392 kts 238°
2026-04-26 06:01 -37.03721 146.42368 28782 ft 390 kts 238°
2026-04-26 06:02 -37.05219 146.39550 28367 ft 388 kts 239°
2026-04-26 06:02 -37.06734 146.36697 27969 ft 405 kts 239°
2026-04-26 06:02 -37.08326 146.33686 27534 ft 421 kts 239°
2026-04-26 06:02 -37.09953 146.30610 27090 ft 425 kts 239°
2026-04-26 06:03 -37.11586 146.27531 26662 ft 424 kts 239°
2026-04-26 06:03 -37.13216 146.24462 26225 ft 422 kts 239°
2026-04-26 06:03 -37.14835 146.21409 25783 ft 419 kts 239°
2026-04-26 06:03 -37.16441 146.18370 25334 ft 417 kts 239°
2026-04-26 06:04 -37.18033 146.15349 24880 ft 414 kts 239°
2026-04-26 06:04 -37.19613 146.12346 24429 ft 411 kts 240°
2026-04-26 06:04 -37.21182 146.09366 23960 ft 408 kts 240°
2026-04-26 06:04 -37.22765 146.06362 23435 ft 406 kts 240°
2026-04-26 06:05 -37.24315 146.03419 22980 ft 403 kts 240°
2026-04-26 06:05 -37.25855 146.00484 22488 ft 401 kts 240°
2026-04-26 06:05 -37.27383 145.97568 22005 ft 399 kts 240°
2026-04-26 06:05 -37.28899 145.94672 21538 ft 396 kts 240°
2026-04-26 06:06 -37.30409 145.91782 21073 ft 394 kts 240°
2026-04-26 06:06 -37.31910 145.88915 20607 ft 392 kts 240°
2026-04-26 06:06 -37.33407 145.86065 20137 ft 390 kts 240°
2026-04-26 06:06 -37.34900 145.83233 19663 ft 388 kts 240°
2026-04-26 06:07 -37.36385 145.80412 19219 ft 386 kts 240°
2026-04-26 06:07 -37.37867 145.77587 18748 ft 387 kts 241°
2026-04-26 06:07 -37.39345 145.74759 18245 ft 386 kts 241°
2026-04-26 06:07 -37.40814 145.71946 17773 ft 383 kts 241°
2026-04-26 06:08 -37.42270 145.69157 17316 ft 380 kts 240°
2026-04-26 06:08 -37.43712 145.66392 16816 ft 377 kts 240°
2026-04-26 06:08 -37.45140 145.63652 16105 ft 373 kts 240°
2026-04-26 06:08 -37.46612 145.60967 15310 ft 372 kts 238°
2026-04-26 06:09 -37.48134 145.58339 14541 ft 371 kts 237°
2026-04-26 06:09 -37.49675 145.55747 13753 ft 368 kts 236°
2026-04-26 06:09 -37.51182 145.53226 12907 ft 353 kts 236°
2026-04-26 06:09 -37.52637 145.50777 12097 ft 347 kts 236°
2026-04-26 06:10 -37.54057 145.48361 11565 ft 335 kts 236°
2026-04-26 06:10 -37.55441 145.45988 11317 ft 335 kts 237°
2026-04-26 06:10 -37.56776 145.43687 11071 ft 316 kts 237°
2026-04-26 06:10 -37.58039 145.41509 10823 ft 300 kts 237°
2026-04-26 06:11 -37.59257 145.39400 10583 ft 296 kts 237°
2026-04-26 06:11 -37.60462 145.37308 10340 ft 294 kts 237°
2026-04-26 06:11 -37.61660 145.35226 10101 ft 293 kts 237°
2026-04-26 06:11 -37.62847 145.33167 9888 ft 286 kts 237°
2026-04-26 06:12 -37.64005 145.31159 9767 ft 281 kts 237°
2026-04-26 06:12 -37.65150 145.29171 9635 ft 280 kts 237°
2026-04-26 06:12 -37.66295 145.27180 9498 ft 280 kts 237°
2026-04-26 06:12 -37.67453 145.25168 9365 ft 279 kts 237°
2026-04-26 06:13 -37.68597 145.23182 9236 ft 279 kts 237°
2026-04-26 06:13 -37.69727 145.21218 8980 ft 274 kts 237°
2026-04-26 06:13 -37.70854 145.19253 8425 ft 281 kts 237°
2026-04-26 06:13 -37.71997 145.17261 8028 ft 276 kts 237°
2026-04-26 06:14 -37.73121 145.15303 7461 ft 275 kts 237°
2026-04-26 06:14 -37.74225 145.13383 7153 ft 265 kts 237°
2026-04-26 06:14 -37.75290 145.11535 7027 ft 255 kts 237°
2026-04-26 06:14 -37.76324 145.09742 6808 ft 250 kts 237°
2026-04-26 06:15 -37.77341 145.07974 6454 ft 251 kts 238°
2026-04-26 06:15 -37.78360 145.06194 6177 ft 248 kts 238°
2026-04-26 06:15 -37.79370 145.04428 5840 ft 247 kts 238°
2026-04-26 06:15 -37.80372 145.02675 5456 ft 244 kts 238°
2026-04-26 06:16 -37.81247 145.00881 4997 ft 234 kts 250°
2026-04-26 06:16 -37.81712 144.98945 4696 ft 231 kts 260°
2026-04-26 06:16 -37.82055 144.96958 4350 ft 230 kts 260°
2026-04-26 06:16 -37.82393 144.95047 3955 ft 216 kts 260°
2026-04-26 06:17 -37.82693 144.93210 3539 ft 211 kts 263°
2026-04-26 06:17 -37.82929 144.91397 3117 ft 208 kts 264°
2026-04-26 06:17 -37.83144 144.89589 2695 ft 206 kts 265°
2026-04-26 06:17 -37.83011 144.87878 2500 ft 191 kts 299°
2026-04-26 06:18 -37.82091 144.86717 2457 ft 191 kts 337°
2026-04-26 06:18 -37.80829 144.86484 2359 ft 176 kts 355°
2026-04-26 06:18 -37.79686 144.86324 2255 ft 157 kts 349°
2026-04-26 06:18 -37.78649 144.86110 2129 ft 147 kts 348°
2026-04-26 06:19 -37.77653 144.85899 2001 ft 143 kts 349°
2026-04-26 06:19 -37.76672 144.85695 1878 ft 144 kts 351°
2026-04-26 06:19 -37.75690 144.85494 1716 ft 141 kts 349°
2026-04-26 06:19 -37.74716 144.85298 1555 ft 141 kts 350°
2026-04-26 06:20 -37.73747 144.85109 1374 ft 140 kts 349°
2026-04-26 06:20 -37.72775 144.84911 1207 ft 142 kts 351°
2026-04-26 06:20 -37.71791 144.84696 1000 ft 143 kts 353°
2026-04-26 06:20 -37.70811 144.84482 820 ft 143 kts 354°
2026-04-26 06:21 -37.69812 144.84324 627 ft 147 kts 353°
2026-04-26 06:21 -37.68822 144.84140 452 ft 142 kts 353°
2026-04-26 06:21 -37.67857 144.83959 362 ft 130 kts 353°
2026-04-26 06:21 -37.67113 144.83830 383 ft 84 kts 352°
2026-04-26 06:22 -37.66689 144.83750 395 ft 45 kts 353°
2026-04-26 06:22 -37.66513 144.83815 401 ft 23 kts 67°
2026-04-26 06:22 -37.66509 144.83854 404 ft 0 kts 86°
2026-04-26 06:22 -37.66508 144.83876 404 ft 6 kts 86°
2026-04-26 06:23 -37.66508 144.83939 404 ft 8 kts 90°
2026-04-26 06:23 -37.66510 144.84019 404 ft 10 kts 93°
2026-04-26 06:23 -37.66532 144.84113 403 ft 13 kts 126°
2026-04-26 06:23 -37.66624 144.84164 398 ft 17 kts 169°
2026-04-26 06:24 -37.66760 144.84188 394 ft 20 kts 171°
2026-04-26 06:24 -37.66907 144.84213 388 ft 23 kts 172°
2026-04-26 06:24 -37.67013 144.84233 386 ft 15 kts 170°
2026-04-26 06:24 -37.67128 144.84256 383 ft 16 kts 172°
2026-04-26 06:25 -37.67244 144.84279 381 ft 18 kts 172°
2026-04-26 06:25 -37.67382 144.84302 378 ft 22 kts 172°
2026-04-26 06:25 -37.67473 144.84412 377 ft 21 kts 89°
2026-04-26 06:25 -37.67453 144.84591 380 ft 19 kts 82°
2026-04-26 06:26 -37.67416 144.84741 383 ft 14 kts 44°
2026-04-26 06:26 -37.67362 144.84778 384 ft 6 kts 23°
2026-04-26 06:26 -37.67351 144.84784 385 ft 1 kts 24°
2026-04-26 06:26 -37.67348 144.84786 385 ft 0 kts 24°